Weather History for Del Rio, TX

Change the Weather History Date:

Monday, October 15, 2012

  Actual Average Record
Temperature  
Mean Temperature 77 °F 72 °F  
Max Temperature 82 °F 83 °F 99 °F (2009)
Min Temperature 71 °F 61 °F 43 °F (1912)
Degree Days  
Heating Degree Days 0 1  
Month to date heating degree days 11 1  
Since 1 July heating degree days 11 2  
Cooling Degree Days 12 8  
Month to date cooling degree days 178 141  
Year to date cooling degree days 3850 3236  
Growing Degree Days 27 (Base 50)    
Moisture  
Dew Point 54 °F    
Average Humidity 48    
Maximum Humidity 61    
Minimum Humidity 34    
Precipitation  
Precipitation 0.00 in 0.08 in 0.97 in (1958)
Month to date precipitation 0.06 1.28  
Year to date precipitation 13.78 16.99  
Sea Level Pressure  
Sea Level Pressure 30.01 in    
Wind  
Wind Speed 5 mph (SE)    
Max Wind Speed 13 mph    
Max Gust Speed 16 mph    
Visibility 10 miles    
Events      
T = Trace of Precipitation, MM = Missing Value Source: NWS Daily Summary

Daily Weather History Graph

Daily Weather History Graph

Search for Another Location

Airport:

Trip Planner

Search our weather history database for the weather conditions in past years. The results will help you decide how hot, cold, wet, or windy it might be!

Date:

Astronomy

Oct. 15, 2012 Rise Set
Actual Time 7:45 AM CDT 7:12 PM CDT
Civil Twilight 7:21 AM CDT 7:36 PM CDT
Nautical Twilight 6:53 AM CDT 8:04 PM CDT
Astronomical Twilight 6:26 AM CDT 8:31 PM CDT
Moon 7:53 AM CDT (10/15) 7:20 PM CDT (10/15)
Length of Visible Light 12h 15m
Length of Day
11h 27m
Waxing Crescent, 0% of the Moon is Illuminated
Oct 15
Waxing Crescent
Oct 21
First Quarter
Oct 29
Full
Nov 6
Last Quarter
Nov 13
New

Hourly Weather History & Observations

Time (CDT) Temp. Heat Index Dew Point Humidity Pressure Visibility Wind Dir Wind Speed Gust Speed Precip Events Conditions
12:53 AM 75.0 °F - 53.1 °F 46% 30.03 in 10.0 mi ENE 6.9 mph - 0.00 in   Overcast
1:53 AM 73.9 °F - 52.0 °F 46% 30.04 in 10.0 mi Calm Calm - N/A   Overcast
2:53 AM 73.0 °F - 55.0 °F 53% 30.03 in 10.0 mi North 3.5 mph - N/A   Overcast
3:53 AM 75.0 °F - 51.1 °F 43% 30.02 in 10.0 mi Calm Calm - N/A   Overcast
4:53 AM 73.9 °F - 53.1 °F 48% 30.02 in 10.0 mi Calm Calm - N/A   Overcast
5:53 AM 73.0 °F - 53.1 °F 49% 30.03 in 10.0 mi Calm Calm - N/A   Overcast
6:53 AM 73.4 °F - 53.6 °F 50% 30.09 in 10.0 mi Calm Calm - N/A   Overcast
7:53 AM 72.0 °F - 54.0 °F 53% 30.05 in 10.0 mi Calm Calm - N/A   Overcast
8:53 AM 73.0 °F - 54.0 °F 51% 30.07 in 10.0 mi Calm Calm - N/A   Mostly Cloudy
9:53 AM 73.9 °F - 54.0 °F 50% 30.09 in 10.0 mi NW 3.5 mph - N/A   Scattered Clouds
10:53 AM 77.0 °F - 48.9 °F 37% 30.08 in 10.0 mi NE 4.6 mph - N/A   Mostly Cloudy
11:53 AM 77.0 °F - 48.9 °F 37% 30.07 in 10.0 mi East 5.8 mph - N/A   Overcast
12:53 PM 79.0 °F - 50.0 °F 36% 30.06 in 10.0 mi SSE 8.1 mph - N/A   Overcast
1:53 PM 80.1 °F - 51.1 °F 36% 30.02 in 10.0 mi SSE 6.9 mph - N/A   Clear
2:53 PM 81.0 °F - 51.1 °F 35% 29.99 in 10.0 mi South 8.1 mph - N/A   Clear
3:53 PM 82.0 °F - 52.0 °F 35% 29.96 in 10.0 mi SSE 9.2 mph - N/A   Clear
4:53 PM 81.0 °F 80.4 °F 53.1 °F 38% 29.95 in 10.0 mi SSE 9.2 mph - N/A   Scattered Clouds
5:53 PM 79.0 °F - 55.0 °F 44% 29.95 in 10.0 mi South 6.9 mph - N/A   Scattered Clouds
6:53 PM 78.1 °F - 55.9 °F 46% 29.95 in 10.0 mi South 5.8 mph - N/A   Partly Cloudy
7:53 PM 75.9 °F - 60.1 °F 58% 29.95 in 10.0 mi South 4.6 mph - N/A   Clear
8:53 PM 75.0 °F - 60.1 °F 60% 29.96 in 10.0 mi SE 4.6 mph - N/A   Scattered Clouds
9:53 PM 73.9 °F - 59.0 °F 59% 29.96 in 10.0 mi SE 5.8 mph - N/A   Clear
10:53 PM 73.9 °F - 57.9 °F 57% 29.95 in 10.0 mi ESE 6.9 mph - N/A   Clear
11:53 PM 73.0 °F - 57.9 °F 59% 29.94 in 10.0 mi SE 5.8 mph - N/A   Clear